STARLINK-5090, 56137

Orbit data source: Space-Track

STARLINK-5090, 56137 is a payload satellite owned by SpaceX/Seattle (US) in LEO that was launched on Wed, 29 Mar 2023 UTC via an FALCON 9 launch vehicle from the Air Force Eastern Test Range (AFETR). Payload-class satellites include a variety of spacecraft equipped with specific instruments for various scientific and technological missions. These include communications satellites like Starlink; space stations such as the ISS; scientific satellites like the Hubble; Earth observation satellites from companies like Planet Labs, Umbra, and HawkEye 360; GPS; miniature CubeSats for education and research; and military/defense satellites.

Loading next visibility...
Identifier
56137, 2023-046AX
Orbit
LEO
Country
Flag of USUS
Related business
Manufacturer
SpaceX/Seattle
Mission
Operational Commercial Communications
Bus & Motor
STARLINK, Unknown motor
Mass
305 kg wet, ~290 kg dry
Launch date (UTC)
2023-03-29 (3 years ago)
Launch vehicle
FALCON 9
Launch site
Air Force Eastern Test Range (AFETR)
Object type
Payload
Rocket body
Debris
Shape & HBR
Box + 1 Pan, 10.1 m
Radar Cross Section
11.087 m², Large (>1 m²)

Expand to show TLE details & history
Last TLE update: 2 days ago

TLE from 2 days ago
0 STARLINK-5090
1 56137U 23046AX  26171.29794876  .00014985  00000-0  55441-3 0  9995
2 56137  43.0048 287.4269 0001396 255.7114 104.3583 15.27493918177890
Epoch: 2026-06-20T07:09Z
TLE epoch observation values (Epoch: 2026-06-20T07:09:02.772Z)
Latitude
-0.00001°
Longitude
-88.34925°
Altitude
483.32 km
Speed
7.625 km/s
True Right ascension
19h 09m 42s
True Declination
0° 00' 00"
Sunlit
Object was in full shadow at epoch
Visualization orbit readout
Latitude
Unknown
Longitude
Unknown
Altitude
Unknown
Speed
Unknown
Apparent Right ascension
Unknown
Apparent Declination
Unknown
Sunlit
N/A
Visualization observer readout
Local Sidereal Time
21:28:53
Azimuth
Unknown
Elevation
Unknown
Doppler factor
Unknown
Orbital elements
Apogee altitude
486.209 km
Perigee altitude
484.293 km
Semi-major axis
6,863.388 km
Eccentricity
0.00014
Inclination
43.0048°
RAAN
287.4269°
Arg. of periapsis
255.7114°
True anomaly
104.3738°
Mean anomaly
104.3583°
Eccentric anomaly
104.36605°
Mean motion
3.81712 °/min
Orbital period
94.31 mins
BSTAR
0.00055441
Loading maneuver chart data...
Computing Atmospheric mass density...
Loading historical data...
Loading historical data...
Loading historical data...
Loading historical data...
Loading historical data...
Loading historical data...
Loading historical data...

Documentation

Showing up to 5 results
|